AEE075 LBSF-LGAV

Flight info

Callsign AEE075
Flight time 0h 50m
Altitude 34000
Route NAPET3S/09 NAPET T214 SIN DCT MAKED/N0413F370 DCT SIGFO UM749 ROPOX
Aircraft A20N/M-SDE2E3FGHIRWXY/LB1

Departure

Time 2026-05-05 17:49
Airport Sofia Airport (LBSF)

Arrival

Time 2026-05-05 18:39
Airport Athens Eleftherios Venizelos International Airport (LGAV)
Time Latitude Longitude Altitude Speed Heading
2026-05-05 17:25 42.69106 23.40160 1748 ft 0 kts 182°
2026-05-05 17:43 42.69089 23.40149 1748 ft 8 kts 212°
2026-05-05 17:43 42.69080 23.40061 1748 ft 13 kts 284°
2026-05-05 17:44 42.69101 23.39922 1748 ft 17 kts 280°
2026-05-05 17:44 42.69138 23.39741 1743 ft 22 kts 286°
2026-05-05 17:44 42.69180 23.39557 1744 ft 10 kts 288°
2026-05-05 17:44 42.69213 23.39522 1746 ft 6 kts 27°
2026-05-05 17:45 42.69312 23.39567 1747 ft 18 kts
2026-05-05 17:45 42.69449 23.39576 1740 ft 22 kts
2026-05-05 17:45 42.69597 23.39593 1739 ft 20 kts
2026-05-05 17:45 42.69649 23.39598 1746 ft 0 kts
2026-05-05 17:46 42.69733 23.39612 1745 ft 18 kts 18°
2026-05-05 17:46 42.69769 23.39675 1749 ft 0 kts 84°
2026-05-05 17:48 42.69769 23.39743 1742 ft 37 kts 94°
2026-05-05 17:48 42.69720 23.40553 1747 ft 130 kts 94°
2026-05-05 17:48 42.69624 23.42075 1890 ft 187 kts 95°
2026-05-05 17:49 42.69486 23.44052 2140 ft 231 kts 94°
2026-05-05 17:49 42.69357 23.46259 3328 ft 227 kts 95°
2026-05-05 17:49 42.69240 23.48388 4597 ft 231 kts 94°
2026-05-05 17:49 42.69112 23.50620 5559 ft 241 kts 94°
2026-05-05 17:50 42.68976 23.52936 6580 ft 250 kts 95°
2026-05-05 17:50 42.68826 23.55321 7600 ft 256 kts 97°
2026-05-05 17:50 42.68200 23.57591 8637 ft 263 kts 124°
2026-05-05 17:50 42.66840 23.59285 9467 ft 273 kts 150°
2026-05-05 17:51 42.65026 23.60039 9832 ft 276 kts 178°
2026-05-05 17:51 42.63146 23.59642 9980 ft 279 kts 201°
2026-05-05 17:51 42.61308 23.58500 10010 ft 309 kts 208°
2026-05-05 17:51 42.59353 23.57162 10007 ft 305 kts 207°
2026-05-05 17:52 42.58099 23.56364 9998 ft 295 kts 205°
2026-05-05 17:52 42.56223 23.55270 10004 ft 297 kts 203°
2026-05-05 17:52 42.54302 23.54215 10008 ft 297 kts 206°
2026-05-05 17:52 42.52551 23.52737 10091 ft 299 kts 221°
2026-05-05 17:53 42.51106 23.50621 10243 ft 318 kts 237°
2026-05-05 17:53 42.49924 23.47959 10713 ft 338 kts 241°
2026-05-05 17:53 42.48715 23.45196 11607 ft 344 kts 240°
2026-05-05 17:53 42.47478 23.42389 12539 ft 350 kts 240°
2026-05-05 17:54 42.46213 23.39530 13457 ft 356 kts 240°
2026-05-05 17:54 42.44927 23.36630 14324 ft 362 kts 240°
2026-05-05 17:54 42.43622 23.33693 15152 ft 367 kts 240°
2026-05-05 17:54 42.42298 23.30715 15967 ft 372 kts 241°
2026-05-05 17:55 42.40954 23.27695 16778 ft 377 kts 241°
2026-05-05 17:55 42.39589 23.24630 17591 ft 383 kts 241°
2026-05-05 17:55 42.38206 23.21529 18371 ft 388 kts 242°
2026-05-05 17:55 42.36807 23.18391 19075 ft 391 kts 242°
2026-05-05 17:56 42.35397 23.15234 19828 ft 394 kts 242°
2026-05-05 17:56 42.33973 23.12048 20555 ft 398 kts 242°
2026-05-05 17:56 42.32402 23.08938 21247 ft 405 kts 231°
2026-05-05 17:56 42.30250 23.06426 21925 ft 415 kts 215°
2026-05-05 17:57 42.27615 23.04749 22573 ft 425 kts 199°
2026-05-05 17:57 42.24688 23.04045 23197 ft 433 kts 184°
2026-05-05 17:57 42.21661 23.04373 23772 ft 441 kts 168°
2026-05-05 17:57 42.18701 23.05545 24300 ft 445 kts 162°
2026-05-05 17:58 42.15733 23.06802 24870 ft 449 kts 165°
2026-05-05 17:58 42.12689 23.07828 25389 ft 452 kts 169°
2026-05-05 17:58 42.09587 23.08624 25902 ft 456 kts 172°
2026-05-05 17:58 42.06483 23.09274 26408 ft 459 kts 173°
2026-05-05 17:59 42.03310 23.09869 26907 ft 463 kts 174°
2026-05-05 17:59 42.00107 23.10445 27397 ft 466 kts 174°
2026-05-05 17:59 41.96880 23.11023 27871 ft 470 kts 174°
2026-05-05 17:59 41.93628 23.11608 28329 ft 473 kts 174°
2026-05-05 18:00 41.90439 23.12184 28752 ft 476 kts 174°
2026-05-05 18:00 41.87139 23.12782 29187 ft 480 kts 174°
2026-05-05 18:00 41.83813 23.13385 29592 ft 483 kts 174°
2026-05-05 18:00 41.80472 23.13991 30013 ft 486 kts 174°
2026-05-05 18:01 41.77106 23.14600 30362 ft 489 kts 174°
2026-05-05 18:01 41.73732 23.15209 30731 ft 492 kts 174°
2026-05-05 18:01 41.70330 23.15824 31111 ft 494 kts 174°
2026-05-05 18:01 41.66927 23.16438 31614 ft 493 kts 174°
2026-05-05 18:02 41.63529 23.17050 32082 ft 492 kts 174°
2026-05-05 18:02 41.60139 23.17660 32564 ft 491 kts 174°
2026-05-05 18:02 41.56840 23.18253 32906 ft 489 kts 174°
2026-05-05 18:02 41.53469 23.18859 33011 ft 488 kts 174°
2026-05-05 18:03 41.50113 23.19461 33020 ft 487 kts 174°
2026-05-05 18:03 41.43403 23.20663 33018 ft 488 kts 174°
2026-05-05 18:04 41.36659 23.21869 33016 ft 488 kts 174°
2026-05-05 18:04 41.29931 23.23070 33007 ft 488 kts 174°
2026-05-05 18:05 41.23193 23.24271 33006 ft 488 kts 175°
2026-05-05 18:05 41.16453 23.25470 33008 ft 489 kts 175°
2026-05-05 18:06 41.09709 23.26667 33008 ft 489 kts 175°
2026-05-05 18:06 41.02955 23.27864 33012 ft 490 kts 175°
2026-05-05 18:07 40.96197 23.29058 33012 ft 491 kts 175°
2026-05-05 18:07 40.89418 23.30254 33014 ft 492 kts 175°
2026-05-05 18:08 40.82703 23.31436 33011 ft 492 kts 175°
2026-05-05 18:08 40.75990 23.32615 33012 ft 494 kts 175°
2026-05-05 18:09 40.69177 23.33810 33016 ft 495 kts 175°
2026-05-05 18:09 40.62350 23.35005 33011 ft 494 kts 175°
2026-05-05 18:10 40.55524 23.36196 33014 ft 495 kts 175°
2026-05-05 18:10 40.48691 23.37388 33012 ft 495 kts 175°
2026-05-05 18:11 40.41858 23.38575 33022 ft 495 kts 175°
2026-05-05 18:11 40.35023 23.39762 33022 ft 495 kts 175°
2026-05-05 18:12 40.28809 23.40839 33021 ft 496 kts 176°
2026-05-05 18:12 40.21967 23.42022 33021 ft 496 kts 176°
2026-05-05 18:13 40.15109 23.43205 33021 ft 497 kts 176°
2026-05-05 18:13 40.08249 23.44386 33020 ft 498 kts 176°
2026-05-05 18:14 40.01355 23.45571 33021 ft 500 kts 176°
2026-05-05 18:14 39.94452 23.46754 33020 ft 501 kts 176°
2026-05-05 18:15 39.87953 23.47867 33020 ft 503 kts 176°
2026-05-05 18:15 39.81193 23.49021 33021 ft 504 kts 176°
2026-05-05 18:16 39.74229 23.50208 33023 ft 506 kts 177°
2026-05-05 18:16 39.67236 23.51398 33020 ft 507 kts 177°
2026-05-05 18:17 39.60229 23.52588 33026 ft 508 kts 177°
2026-05-05 18:17 39.53163 23.53785 33023 ft 510 kts 177°
2026-05-05 18:18 39.46116 23.54976 33024 ft 511 kts 177°
2026-05-05 18:18 39.39102 23.56160 33022 ft 512 kts 177°
2026-05-05 18:19 39.32028 23.57352 32739 ft 512 kts 177°
2026-05-05 18:19 39.28500 23.57945 32474 ft 512 kts 177°
2026-05-05 18:19 39.24967 23.58538 32216 ft 512 kts 177°
2026-05-05 18:19 39.21434 23.59131 31957 ft 512 kts 177°
2026-05-05 18:20 39.17891 23.59725 31702 ft 512 kts 177°
2026-05-05 18:20 39.14355 23.60318 31450 ft 513 kts 177°
2026-05-05 18:20 39.10815 23.60910 31200 ft 513 kts 177°
2026-05-05 18:20 39.07308 23.61496 30955 ft 513 kts 177°
2026-05-05 18:21 39.03739 23.62092 30705 ft 512 kts 177°
2026-05-05 18:21 39.00210 23.62681 30462 ft 510 kts 177°
2026-05-05 18:21 38.96699 23.63267 30066 ft 508 kts 177°
2026-05-05 18:21 38.93190 23.63850 29252 ft 508 kts 176°
2026-05-05 18:22 38.89698 23.64431 28563 ft 503 kts 176°
2026-05-05 18:22 38.86236 23.65006 27869 ft 498 kts 176°
2026-05-05 18:22 38.82818 23.65573 27184 ft 493 kts 176°
2026-05-05 18:22 38.79434 23.66133 26482 ft 488 kts 176°
2026-05-05 18:23 38.76085 23.66687 25801 ft 483 kts 176°
2026-05-05 18:23 38.72762 23.67235 25103 ft 479 kts 176°
2026-05-05 18:23 38.69454 23.67639 24253 ft 475 kts 182°
2026-05-05 18:23 38.66173 23.67602 23546 ft 470 kts 184°
2026-05-05 18:24 38.62921 23.67547 22869 ft 463 kts 184°
2026-05-05 18:24 38.59717 23.67472 22089 ft 459 kts 184°
2026-05-05 18:24 38.56545 23.67374 21370 ft 454 kts 184°
2026-05-05 18:24 38.53404 23.67262 20680 ft 449 kts 184°
2026-05-05 18:25 38.50294 23.67145 20000 ft 444 kts 184°
2026-05-05 18:25 38.48256 23.67067 19544 ft 441 kts 184°
2026-05-05 18:25 38.44177 23.66909 18672 ft 435 kts 184°
2026-05-05 18:25 38.41167 23.66792 17986 ft 431 kts 184°
2026-05-05 18:26 38.38187 23.66678 17285 ft 425 kts 184°
2026-05-05 18:26 38.35257 23.66565 16610 ft 420 kts 183°
2026-05-05 18:26 38.32352 23.66453 15943 ft 415 kts 183°
2026-05-05 18:26 38.29520 23.66344 15304 ft 410 kts 183°
2026-05-05 18:27 38.26686 23.66235 14653 ft 405 kts 182°
2026-05-05 18:27 38.23878 23.66128 14043 ft 401 kts 182°
2026-05-05 18:27 38.21107 23.66022 13387 ft 396 kts 182°
2026-05-05 18:27 38.18360 23.65918 12718 ft 392 kts 182°
2026-05-05 18:28 38.12963 23.65714 11415 ft 384 kts 182°
2026-05-05 18:28 38.10398 23.65616 10800 ft 381 kts 182°
2026-05-05 18:28 38.07886 23.65521 10413 ft 371 kts 182°
2026-05-05 18:29 38.05357 23.65426 10256 ft 355 kts 181°
2026-05-05 18:29 38.02936 23.65335 10112 ft 340 kts 181°
2026-05-05 18:29 38.00620 23.65249 9978 ft 326 kts 181°
2026-05-05 18:29 37.98396 23.65167 9794 ft 314 kts 181°
2026-05-05 18:30 37.96228 23.65087 9432 ft 310 kts 181°
2026-05-05 18:30 37.94085 23.65008 9066 ft 306 kts 181°
2026-05-05 18:30 37.91976 23.64930 8709 ft 302 kts 182°
2026-05-05 18:30 37.89890 23.64853 8354 ft 298 kts 182°
2026-05-05 18:31 37.87816 23.64777 8003 ft 298 kts 182°
2026-05-05 18:31 37.85753 23.64699 7652 ft 294 kts 182°
2026-05-05 18:31 37.83742 23.64624 7299 ft 284 kts 182°
2026-05-05 18:31 37.81802 23.64555 6957 ft 274 kts 182°
2026-05-05 18:32 37.79944 23.64491 6588 ft 267 kts 182°
2026-05-05 18:32 37.78077 23.64428 6183 ft 262 kts 182°
2026-05-05 18:32 37.76278 23.64369 5773 ft 257 kts 181°
2026-05-05 18:32 37.74544 23.64714 5364 ft 251 kts 155°
2026-05-05 18:33 37.73215 23.66010 4976 ft 244 kts 124°
2026-05-05 18:33 37.72589 23.67964 4583 ft 242 kts 93°
2026-05-05 18:33 37.72768 23.70048 4199 ft 239 kts 75°
2026-05-05 18:33 37.73143 23.72072 3839 ft 231 kts 71°
2026-05-05 18:34 37.73778 23.73832 3740 ft 211 kts 53°
2026-05-05 18:34 37.74736 23.75213 3702 ft 211 kts 41°
2026-05-05 18:34 37.75854 23.76401 3607 ft 209 kts 36°
2026-05-05 18:34 37.76636 23.77146 3542 ft 204 kts 34°
2026-05-05 18:35 37.77710 23.78165 3442 ft 182 kts 34°
2026-05-05 18:35 37.78669 23.79076 3383 ft 164 kts 34°
2026-05-05 18:35 37.79586 23.79944 3292 ft 169 kts 34°
2026-05-05 18:35 37.80516 23.80827 3119 ft 167 kts 34°
2026-05-05 18:36 37.81448 23.81712 2924 ft 168 kts 35°
2026-05-05 18:36 37.82379 23.82597 2720 ft 168 kts 35°
2026-05-05 18:36 37.83317 23.83488 2503 ft 169 kts 35°
2026-05-05 18:36 37.84252 23.84378 2285 ft 168 kts 35°
2026-05-05 18:37 37.85187 23.85266 2066 ft 169 kts 35°
2026-05-05 18:37 37.86126 23.86158 1845 ft 169 kts 36°
2026-05-05 18:37 37.87060 23.87047 1617 ft 167 kts 36°
2026-05-05 18:37 37.87963 23.87906 1395 ft 155 kts 36°
2026-05-05 18:38 37.88774 23.88679 1189 ft 138 kts 36°
2026-05-05 18:38 37.89508 23.89377 1006 ft 126 kts 36°
2026-05-05 18:38 37.90212 23.90046 839 ft 128 kts 36°
2026-05-05 18:38 37.90910 23.90711 674 ft 125 kts 36°
2026-05-05 18:39 37.91599 23.91366 487 ft 124 kts 35°
2026-05-05 18:39 37.92282 23.92023 334 ft 123 kts 36°
2026-05-05 18:39 37.92954 23.92649 270 ft 106 kts 36°
2026-05-05 18:39 37.93271 23.92955 275 ft 41 kts 38°
2026-05-05 18:40 37.93498 23.93183 281 ft 33 kts 44°
2026-05-05 18:40 37.93618 23.93420 285 ft 10 kts 66°
2026-05-05 18:40 37.93676 23.93585 282 ft 29 kts 66°
2026-05-05 18:40 37.93828 23.93759 280 ft 30 kts 35°
2026-05-05 18:41 37.93995 23.93919 284 ft 30 kts 37°
2026-05-05 18:41 37.94159 23.94074 287 ft 29 kts 36°
2026-05-05 18:41 37.94349 23.94256 294 ft 42 kts 34°
2026-05-05 18:41 37.94583 23.94475 292 ft 37 kts 37°
2026-05-05 18:42 37.94679 23.94611 294 ft 21 kts 90°
2026-05-05 18:42 37.94541 23.94867 287 ft 42 kts 127°
2026-05-05 18:42 37.94454 23.95009 279 ft 28 kts 127°
2026-05-05 18:42 37.94336 23.95195 279 ft 27 kts 128°
2026-05-05 18:43 37.94273 23.95308 284 ft 20 kts 137°
2026-05-05 18:43 37.94202 23.95332 286 ft 11 kts 213°
2026-05-05 18:43 37.94164 23.95301 288 ft 0 kts 216°